{"data":{"norad_id":36516,"intl_designator":"2010-016A","name":"SES-1","alt_names":[],"object_type":"PAYLOAD","status":"ACTIVE","operator":null,"country":"SES","launch_date":"2010-04-24","launch_site_code":"TYMSC","launch_vehicle":null,"mission":null,"orbit_class":"UNKNOWN","rcs_meters":26.9753,"size_class":null,"mass_kg":null,"dimensions":null,"purposes":["comms"],"wikipedia_slug":null,"has_3d_model":false,"image_url":null,"decayed_at":null,"tle_current":{"epoch":"2026-05-25T03:15:48.075840Z","epoch_age_seconds":57227,"freshness":"FRESH","line1":"1 36516U 10016A   26145.13597310 -.00000117  00000+0  00000+0 0  9994","line2":"2 36516   0.0155 313.1592 0002745 110.4116 127.1008  1.00272030 58805","mean_motion":1.0027203,"eccentricity":0.0002745,"inclination_deg":0.0155,"raan_deg":313.1592,"arg_perigee_deg":110.4116,"mean_anomaly_deg":127.1008,"bstar":0,"rev_number":5880,"period_min":1436.0933951372,"perigee_km":35774.952078867,"apogee_km":35798.100479007,"semimajor_km":42164.663278937,"source":"CELESTRAK","updated_at":"2026-05-25T13:38:14.503398Z"}}}